Zurück zum Katalog

STARLINK-35099

AktivKommunikationVLEO
NORAD 65735·PAYLOAD·🇺🇸 United States

Gestartet Sep 25, 2025 von Cape Canaveral Space Force Station

Loading…

Nächste Überflüge (nächste 24 Stunden)

TLE

AktuellSource: CelesTrak SupGP

Epoche: Sep 15, 2026, 04:02 UTC

1 65735C 25216B   26258.16854167  .00002816  00000+0  83203-4 0  2587
2 65735  53.1576 170.6431 0001327  78.8668 289.2316 15.34386240    11

Verfolge STARLINK-35099 in Echtzeit mit AllMySat

Download on the App Store